DG5TKE Weather Reports


time (UTC)temp
C
wind
direction
speed
KPH
gust
KPH
rain 1hr
cm
rain 24hr
cm
rain mn
cm
humidity
%
barometer
mb
20260510054003 7 0 0.0 0.0 0.00 0.00 0.00 95 1012.8
20260510053217 7 0 0.0 3.2 0.00 0.00 0.00 94 1012.8
20260510052003 7 0 0.0 0.0 0.00 0.00 0.00 95 1013.0
20260510051222 6 196 1.6 3.2 0.00 0.00 0.00 95 1012.8
20260510050006 6 172 0.0 3.2 0.00 0.00 0.00 94 1012.9
20260510045003 6 157 1.6 4.8 0.00 0.00 0.00 94 1012.8
20260510044003 6 0 0.0 3.2 0.00 0.00 0.00 94 1013.0
20260510043221 6 0 0.0 0.0 0.00 0.00 0.00 94 1013.0
20260510042006 6 0 0.0 0.0 0.00 0.00 0.00 94 1013.1
20260510041003 6 0 0.0 0.0 0.00 0.00 0.00 94 1013.1
20260510040003 6 0 0.0 0.0 0.00 0.00 0.00 93 1013.0
20260510035221 5 0 0.0 0.0 0.00 0.00 0.00 93 1013.0
20260510034003 5 0 0.0 0.0 0.00 0.00 0.00 93 1012.9
20260510033003 5 0 0.0 1.6 0.00 0.00 0.00 93 1013.0
20260510032003 5 0 0.0 1.6 0.00 0.00 0.00 93 1013.1
20260510031006 6 0 0.0 3.2 0.00 0.00 0.00 93 1013.1
20260510030006 6 0 0.0 0.0 0.00 0.00 0.00 93 1013.1
20260510025219 6 0 0.0 0.0 0.00 0.00 0.00 93 1013.2
20260510024006 6 0 0.0 0.0 0.00 0.00 0.00 93 1013.2
20260510023003 6 0 0.0 0.0 0.00 0.00 0.00 92 1013.5
20260510022006 6 0 0.0 0.0 0.00 0.00 0.00 92 1013.5
20260510021218 6 0 0.0 0.0 0.00 0.00 0.00 92 1013.5
20260510020003 6 0 0.0 0.0 0.00 0.00 0.00 92 1013.6
20260510015006 6 0 0.0 0.0 0.00 0.00 0.00 92 1013.7
20260510014003 6 0 0.0 0.0 0.00 0.00 0.00 92 1013.9
20260510013006 6 0 0.0 0.0 0.00 0.00 0.00 91 1013.9
20260510012003 6 0 0.0 0.0 0.00 0.00 0.00 91 1014.0
20260510011218 6 0 0.0 0.0 0.00 0.00 0.00 91 1014.0
20260510010003 6 0 0.0 0.0 0.00 0.00 0.00 91 1014.1
20260510005217 7 0 0.0 0.0 0.00 0.00 0.00 90 1014.0
20260510004003 7 0 0.0 1.6 0.00 0.00 0.00 90 1014.2
20260510003004 7 223 0.0 1.6 0.00 0.00 0.00 90 1014.4
20260510002221 7 223 1.6 1.6 0.00 0.00 0.00 90 1014.5
20260510001003 7 222 1.6 6.4 0.00 0.00 0.00 89 1014.6
20260510000003 7 0 0.0 0.0 0.00 0.00 0.00 89 1014.7
20260509235217 8 302 1.6 1.6 0.00 0.00 0.00 89 1014.8
20260509234217 8 309 1.6 4.8 0.00 0.00 0.00 89 1014.8
20260509233003 8 0 0.0 0.0 0.00 0.00 0.00 88 1014.9
20260509232003 8 327 0.0 4.8 0.00 0.00 0.00 88 1014.9
20260509231217 8 324 1.6 4.8 0.00 0.00 0.00 88 1014.9
20260509230006 8 303 3.2 4.8 0.00 0.00 0.00 88 1015.1
20260509225006 8 313 0.0 4.8 0.00 0.00 0.00 87 1015.3
20260509224003 8 0 0.0 0.0 0.00 0.00 0.00 87 1015.4
20260509223006 8 0 0.0 0.0 0.00 0.00 0.00 86 1015.4
20260509222217 9 0 0.0 0.0 0.00 0.00 0.00 85 1015.5
20260509221003 10 302 3.2 4.8 0.00 0.00 0.00 84 1015.5
20260509220220 10 303 3.2 4.8 0.00 0.00 0.00 83 1015.5
20260509215003 10 303 3.2 4.8 0.00 0.00 0.00 83 1015.4
20260509214008 10 307 3.2 4.8 0.00 0.00 0.00 83 1015.4
20260509213003 10 304 3.2 4.8 0.00 0.00 0.00 83 1015.4
20260509212003 10 304 0.0 4.8 0.00 0.00 0.00 82 1015.4
20260509211003 10 334 0.0 1.6 0.00 0.00 0.00 82 1015.5
20260509210006 10 322 1.6 4.8 0.00 0.00 0.00 81 1015.5
20260509205003 11 12 1.6 3.2 0.00 0.00 0.00 81 1015.5
20260509204003 11 319 3.2 6.4 0.00 0.00 0.00 80 1015.5
20260509203003 11 317 3.2 6.4 0.00 0.00 0.00 80 1015.5
20260509202003 11 323 1.6 4.8 0.00 0.00 0.00 79 1015.6
20260509201003 11 348 1.6 3.2 0.00 0.00 0.00 79 1015.5
20260509200006 11 348 3.2 4.8 0.00 0.00 0.00 79 1015.4
20260509195003 11 318 1.6 4.8 0.00 0.00 0.00 78 1015.6
20260509194003 11 317 3.2 4.8 0.00 0.00 0.00 78 1015.5
20260509193003 11 315 3.2 4.8 0.00 0.00 0.00 77 1015.5
20260509192003 12 322 1.6 4.8 0.00 0.00 0.00 75 1015.3
20260509191006 12 323 3.2 3.2 0.00 0.00 0.00 74 1015.0
20260509190006 13 360 3.2 6.4 0.00 0.00 0.00 72 1014.9
20260509185007 13 7 1.6 6.4 0.00 0.00 0.00 70 1014.9
20260509184003 13 33 3.2 6.4 0.00 0.00 0.00 69 1014.9
20260509183003 13 56 4.8 8.0 0.00 0.00 0.00 69 1014.9
20260509182006 14 50 6.4 14.5 0.00 0.00 0.00 68 1014.9
20260509181006 14 47 6.4 17.7 0.00 0.00 0.00 67 1014.8
20260509180223 14 46 8.0 17.7 0.00 0.00 0.00 67 1014.9
20260509175006 15 40 8.0 17.7 0.00 0.00 0.00 66 1015.0
20260509174217 15 40 6.4 17.7 0.00 0.00 0.00 66 1015.0
20260509173003 15 53 6.4 16.1 0.00 0.00 0.00 65 1014.9
20260509172006 15 40 8.0 19.3 0.00 0.00 0.00 65 1015.0
20260509171003 15 45 8.0 16.1 0.00 0.00 0.00 64 1015.0
20260509170003 16 48 8.0 20.9 0.00 0.00 0.00 64 1014.9
20260509165216 16 78 8.0 17.7 0.00 0.00 0.00 64 1014.8
20260509164003 16 73 8.0 19.3 0.00 0.00 0.00 62 1014.9
20260509163006 16 78 8.0 16.1 0.00 0.00 0.00 60 1014.9
20260509162003 16 76 6.4 16.1 0.00 0.00 0.00 60 1014.9
20260509161218 16 51 6.4 14.5 0.00 0.00 0.00 61 1015.0
20260509160006 16 46 8.0 17.7 0.00 0.00 0.00 61 1015.1
20260509155223 16 50 8.0 16.1 0.00 0.00 0.00 61 1015.2
20260509154003 16 47 8.0 17.7 0.00 0.00 0.00 61 1015.3
20260509153003 16 49 6.4 16.1 0.00 0.00 0.00 63 1015.4
20260509152003 16 66 8.0 20.9 0.00 0.00 0.00 60 1015.6
20260509151003 17 60 6.4 16.1 0.00 0.00 0.00 61 1015.6
20260509150218 16 55 6.4 14.5 0.00 0.00 0.00 62 1015.6
20260509145006 16 31 8.0 17.7 0.00 0.00 0.00 62 1015.8
20260509144003 16 49 8.0 16.1 0.00 0.00 0.00 62 1015.7
20260509143003 17 49 8.0 17.7 0.00 0.00 0.00 60 1015.8
20260509142003 17 35 6.4 12.9 0.00 0.00 0.00 62 1015.9
20260509141218 17 48 8.0 16.1 0.00 0.00 0.00 63 1016.0
20260509140004 16 41 6.4 17.7 0.00 0.00 0.00 65 1016.2
20260509135003 16 30 9.7 16.1 0.00 0.00 0.00 63 1016.3
20260509134006 16 25 9.7 16.1 0.00 0.00 0.00 62 1016.4
20260509133003 16 20 6.4 16.1 0.00 0.00 0.00 62 1016.5
20260509132003 16 32 6.4 16.1 0.00 0.00 0.00 62 1016.6
20260509131003 16 57 4.8 12.9 0.00 0.00 0.00 60 1016.7
20260509130003 17 114 3.2 9.7 0.00 0.00 0.00 61 1016.8
20260509125003 16 113 3.2 11.3 0.00 0.00 0.00 60 1016.9
20260509124003 16 72 4.8 11.3 0.00 0.00 0.00 61 1017.0
20260509123003 16 50 4.8 11.3 0.00 0.00 0.00 61 1017.0
20260509122006 16 85 6.4 14.5 0.00 0.00 0.00 63 1017.0
20260509121003 16 71 6.4 17.7 0.00 0.00 0.00 63 1017.2
20260509120217 16 49 4.8 17.7 0.00 0.00 0.00 65 1017.3
20260509115003 15 60 6.4 14.5 0.00 0.00 0.00 67 1017.3
20260509114216 15 77 6.4 16.1 0.00 0.00 0.00 68 1017.3
20260509113003 15 76 6.4 14.5 0.00 0.00 0.00 68 1017.4
20260509112003 15 77 6.4 16.1 0.00 0.00 0.00 68 1017.5
20260509111006 15 37 6.4 12.9 0.00 0.00 0.00 70 1017.6
20260509110003 14 58 6.4 14.5 0.00 0.00 0.00 71 1017.8
20260509105003 14 55 4.8 14.5 0.00 0.00 0.00 70 1017.9
20260509104003 14 44 3.2 14.5 0.00 0.00 0.00 70 1017.9
20260509103218 14 60 3.2 11.3 0.00 0.00 0.00 71 1017.9
20260509102003 14 84 4.8 8.0 0.00 0.00 0.00 72 1017.9
20260509101003 14 154 4.8 8.0 0.00 0.00 0.00 72 1018.0
20260509100004 14 112 3.2 11.3 0.00 0.00 0.00 73 1018.1
20260509095003 14 46 3.2 8.0 0.00 0.00 0.00 73 1018.1
20260509094218 13 104 4.8 12.9 0.00 0.00 0.00 72 1018.1
20260509093003 13 117 3.2 11.3 0.00 0.00 0.00 74 1018.3
20260509092003 13 126 1.6 6.4 0.00 0.00 0.00 74 1018.3
20260509091006 14 164 3.2 4.8 0.00 0.00 0.00 73 1018.3
20260509090003 13 121 3.2 9.7 0.00 0.00 0.00 75 1018.4
20260509085218 14 134 4.8 11.3 0.00 0.00 0.00 75 1018.4
20260509084220 13 140 3.2 11.3 0.00 0.00 0.00 78 1018.5
20260509083003 12 138 3.2 8.0 0.00 0.00 0.00 79 1018.6
20260509082003 12 172 3.2 6.4 0.00 0.00 0.00 81 1018.7
20260509081221 12 78 3.2 6.4 0.00 0.00 0.00 80 1018.7
20260509080003 12 118 4.8 11.3 0.00 0.00 0.00 80 1018.7
20260509075003 12 135 3.2 8.0 0.00 0.00 0.00 82 1018.7
20260509074221 11 172 3.2 9.7 0.00 0.00 0.00 83 1018.7
20260509073217 11 141 3.2 11.3 0.00 0.00 0.00 85 1018.7
20260509072217 11 161 3.2 11.3 0.00 0.00 0.00 86 1018.7
20260509071006 10 204 3.2 6.4 0.00 0.00 0.00 86 1018.7
20260509070006 10 193 3.2 8.0 0.00 0.00 0.00 86 1018.7
20260509065003 10 186 3.2 9.7 0.00 0.00 0.00 87 1018.7
20260509064003 10 217 4.8 8.0 0.00 0.00 0.00 88 1018.6
20260509063003 10 194 3.2 8.0 0.00 0.00 0.00 88 1018.6
20260509062003 9 168 3.2 9.7 0.00 0.00 0.00 89 1018.5
20260509061006 9 172 1.6 9.7 0.00 0.00 0.00 90 1018.5
20260509060004 9 129 1.6 8.0 0.00 0.00 0.00 90 1018.5
20260509055003 9 0 0.0 6.4 0.00 0.00 0.00 90 1018.5